STARLINK-34249, 65376

Orbit data source: Space-Track

STARLINK-34249, 65376 is a payload satellite owned by SpaceX/Seattle (US) in LEO that was launched on Thu, 28 Aug 2025 UTC via an FALCON 9 launch vehicle from the Air Force Eastern Test Range (AFETR). Payload-class satellites include a variety of spacecraft equipped with specific instruments for various scientific and technological missions. These include communications satellites like Starlink; space stations such as the ISS; scientific satellites like the Hubble; Earth observation satellites from companies like Planet Labs, Umbra, and HawkEye 360; GPS; miniature CubeSats for education and research; and military/defense satellites.

Loading next visibility...
Identifier
65376, 2025-190AB
Orbit
LEO
Country
Flag of USUS
Related business
Manufacturer
SpaceX/Seattle
Mission
Operational Commercial Communications
Bus & Motor
STARLINK V2MO, Unknown motor
Mass
575 kg wet, ~530 kg dry
Launch date (UTC)
2025-08-28 (10 months ago)
Launch vehicle
FALCON 9
Launch site
Air Force Eastern Test Range (AFETR)
Object type
Payload
Rocket body
Debris
Shape & HBR
Box + 2 Pan, 17.7 m
Radar Cross Section
36.964 m², Large (>1 m²)

Expand to show TLE details & history
Last TLE update: 11 hours ago

TLE from 11 hours ago
0 STARLINK-34249
1 65376U 25190AB  26171.38051867  .00025424  00000-0  76089-3 0  9999
2 65376  53.1601  50.0463 0001542  87.3602 272.7577 15.34406853 45916
Epoch: 2026-06-20T09:07Z
TLE epoch observation values (Epoch: 2026-06-20T09:07:56.813Z)
Latitude
-0.00001°
Longitude
4.4636°
Altitude
463.534 km
Speed
7.636 km/s
True Right ascension
03h 20m 11s
True Declination
0° 00' 00"
Sunlit
Object was in daylight at epoch
Visualization orbit readout
Latitude
Unknown
Longitude
Unknown
Altitude
Unknown
Speed
Unknown
Apparent Right ascension
Unknown
Apparent Declination
Unknown
Sunlit
N/A
Visualization observer readout
Local Sidereal Time
07:20:17
Azimuth
Unknown
Elevation
Unknown
Doppler factor
Unknown
Orbital elements
Apogee altitude
463.995 km
Perigee altitude
461.885 km
Semi-major axis
6,841.077 km
Eccentricity
0.00015
Inclination
53.1601°
RAAN
50.0463°
Arg. of periapsis
87.3602°
True anomaly
272.74005°
Mean anomaly
272.7577°
Eccentric anomaly
272.74888°
Mean motion
3.8358 °/min
Orbital period
93.85 mins
BSTAR
0.00076089
Loading maneuver chart data...
Computing Atmospheric mass density...
Loading historical data...
Loading historical data...
Loading historical data...
Loading historical data...
Loading historical data...
Loading historical data...
Loading historical data...

Documentation

Showing up to 5 results
|